Location: Newark
(36.1358°N, 115.1208°W)
Time: 04:11:49
(UTC+00:00)

ISS - Pass Details

Date: 25 January 2021
Orbit: 417 x 422 km, 51.6° (Epoch: 07 March)

Event Time Altitude Azimuth Distance (km) Brightness Sun altitude
Rises 01:26:11 0° 277° (W) 2,365 1.4 -5.9°
Reaches altitude 10° 01:29:13 10° 308° (NW) 1,505 -0.4 -6.5°
Maximum altitude 01:30:51 13° 336° (NNW) 1,345 -1.1 -6.8°
Drops below altitude 10° 01:32:28 10° 5° (N) 1,508 -1.2 -7.1°
Enters shadow 01:34:36 - 29° (NNE) 2,068 -0.7 -7.5°
